Вернуться в каталог

CZ-6A DEB

АктивенSSO
NORAD 56272·DEBRIS·🇨🇳 China

Запущен Nov 11, 2022 с Taiyuan Satellite Launch Center

Loading…

Ближайшие Пролёты (ближайшие 24 часа)

TLE

СвежийSource: Space-Track

Эпоха: Sep 14, 2026, 07:29 UTC

1 56272U 22151ACQ 26257.31185991  .00003207  00000-0  11307-2 0  9998
2 56272  98.7561 284.4233 0011091 340.9212  19.1556 14.35450658180174

Отслеживайте CZ-6A DEB в реальном времени с AllMySat

Download on the App Store